Find Kosmos-1851

NORAD ID: 18103 Int'l Des: 1987-050 Owner: PVO Country: SU unknown
MEOELLIPTICALHEO_ELLIPTICALSEMI_SYNC

实时位置

正在加载3D地球...

关于 Kosmos-1851

正在加载描述...

即将过境

Passes for default location (London). Set your location on the main map for personalized predictions.

高度历史

Loading altitude history...

两行轨道根数

1 18103U 87050A 26129.27334936 .00000052 00000-0 00000+0 0 9996
2 18103 70.9143 189.0095 4631132 40.2303 4.6458 2.00404210285019
Epoch: May 9, 2026 • Age: 54 hours

当前状态

高度 32532.7 km
速度 2.34 km/s
星下点 -37.48°S, 29.28°W
发射日期 Jun 12, 1987
运行时间 38.9 years
类型 other

技术详情

分类 Payload
质量 1250.00 kg
干质量 1150.00 kg
总质量 1250.00 kg
长度 4.00 m
直径 2.00 m
跨度 5.00 m
形状 Cyl + 2 Pan
制造商 NPOL/KOMET
平台类型 Oko
阶段状态 In Orbit
所有者/国家 PVO/SU

Most Searched